Погода в Тандо-Адаме

Пакистан     25°46′05″N   68°39′48″E
темп.,
°C
ветер,
м/с
пор.,
м/с
влажн.,
%
обл.,
%
осадки,
мм/ч
давл.,
гПа
погр.,
м
28 июня, вт
вт2823:00+34юз8135496 0.0 999704
02:00+32юз813555 0.0 998695
05:00+31ююз7126115 0.0 999563
08:00+33ююз8105462 0.0 1000703
11:00+39ююз89352 0.0 9991253
14:00+43ююз76265 0.0 9972273
17:00+43ююз76255 0.0 9952966
20:00+37ююз91140100 0.0 9971122
29 июня, ср
ср2923:00+33юз9125891 0.0 998870
02:00+31юз8126762 0.0 998723
05:00+30юз81367100 0.0 996645
08:00+32юз101455100 0.0 997717
11:00+38юз111235100 0.0 9961183
14:00+40юз11112992 0.0 9941608
17:00+38юз111235100 0.0 9931600
20:00+32юз10145694 0.0 995951
30 июня, чт
чт3023:00+30юз11166911 0.0 995917
02:00+29юз10167121 0.0 994864
05:00+29юз111773100 0.0 994850
08:00+31юз12166270 0.0 995901
11:00+36юз121341100 0.0 9951357
14:00+40юз12123368 0.0 9931693
17:00+37юз111238100 0.0 9931420
20:00+33юз101453100 0.0 9941036
1 июля, пт
пт123:00+30юз101564100 0.0 996943
02:00+29юз111770100 0.0 995886
05:00+29юз11166972 0.0 995932
08:00+31юз1214607 0.0 996986
11:00+37юз10114119 0.0 9961475
14:00+41юз99339 0.0 9941943
17:00+39юз9835100 0.0 9941947
20:00+34юз101250100 0.0 9961084
2 июля, сб
сб223:00+32юз9125982 0.0 997824
02:00+30юз81163100 0.0 997778
05:00+30юз91366100 0.0 996718
08:00+30юз71165100 0.0 998602
11:00+32ююз785649 0.0 998779
14:00+36ююз664453 0.0 9961318
17:00+37ююз6640100 0.0 9951626
20:00+34юз6851100 0.0 996663